Powrót do katalogu

STARLINK-36663

AktywnyŁącznośćVLEO
NORAD 67919·PAYLOAD·🇺🇸 United States

Wystrzelony Feb 22, 2026 z Vandenberg Space Force Base

Loading…

Następne Przeloty (najbliższe 24 godziny)

TLE

ŚwieżeSource: CelesTrak SupGP

Epoka: Sep 14, 2026, 21:25 UTC

1 67919C 26036R   26257.89284722  .00036851  00000+0  13353-2 0  2579
2 67919  42.9997 256.3747 0001375 263.2598  52.4218 15.27548070    11

Śledź STARLINK-36663 w czasie rzeczywistym z AllMySat

Download on the App Store